Home   Weather   37°34'N, 97°19'W   Past weeks
Flag for USA

Past Weather in 37°34'N, 97°19'W, USA — Yesterday and Last 2 Weeks

Now
28 °F

Ice fog.


Feels Like: 23 °F
Forecast: 35 / 23 °F
Wind: 5 mph from Southwest

Location: Wichita Mid-Continent Airport

Current Time: Feb 20, 2019 at 4:18:37 am

Latest Report: Feb 20, 2019 at 3:25 am


Visibility: 4 mi

Pressure: 29.81 "Hg

Humidity: 100%

Dew Point: 28 °F

Location of 37°34'N, 97°19'WLocation

Past Weather in 37°34'N, 97°19'W — Graph

°F

37°34'N, 97°19'W Temperature Yesterday

Maximum temperature yesterday: 33 °F (at 11:53 am)
Minimum temperature yesterday: 24 °F (at 2:53 am)
Average temperature yesterday: 28 °F

High & Low Weather Summary for the Past Weeks

 TemperatureHumidityPressure
High66 °F (Feb 14, 1:53 pm)100% (Feb 5, 10:37 am)30.78 "Hg (Feb 5, 10:37 am)
Low9 °F (Feb 8, 6:53 am)27% (Feb 12, 2:53 pm)29.40 "Hg (Feb 14, 3:53 am)
Average29 °F77%30.07 "Hg
* Reported Feb 5 2:53 am — Feb 20 2:53 am, 37°34'N, 97°19'W. Weather by CustomWeather, © 2019

Note: Actual official high and low records may vary slightly from our data, if they occured in-between our weather recording intervals... More about our weather records

Advertising

37°34'N, 97°19'W Weather History for the Previous 24 Hours

Scroll right to see more
 ConditionsComfort  
Time TempWeatherWind HumidityBarometerVisibility
2:53 am
Wed, Feb 20
28 °FIce fog.No wind100%29.84 "Hg3 mi
2:42 am28 °FIce fog.No wind100%29.82 "Hg3 mi
2:18 am28 °FLight snow. Ice fog.No wind96%29.83 "Hg3 mi
2:00 am28 °FLight snow. Ice fog.No wind96%29.84 "Hg2 mi
12:53 am28 °FLight snow. Ice fog.No wind96%29.89 "Hg2 mi
11:53 pm
Tue, Feb 19
28 °FLight snow. Ice fog.5 mph96%29.90 "Hg3 mi
10:53 pm29 °FLow clouds.8 mph89%29.94 "Hg10 mi
9:53 pm29 °FLight snow. Low clouds.12 mph93%29.95 "Hg7 mi
9:32 pm29 °FIce fog.8 mph93%29.91 "Hg6 mi
9:16 pm29 °FIce fog.10 mph93%29.92 "Hg1 mi
8:53 pm29 °FLight snow. Ice fog.13 mph93%29.96 "Hg1 mi
8:15 pm29 °FLight snow. Ice fog.10 mph96%29.97 "Hg1 mi
6:53 pm30 °FLight snow. Ice fog.8 mph96%30.01 "Hg1 mi
5:53 pm30 °FSnow. Ice fog.9 mph96%30.04 "Hg1 mi
4:53 pm30 °FLight snow. Ice fog.14 mph96%30.05 "Hg1 mi
4:30 pm31 °FSnow. Ice fog.13 mph92%30.03 "Hg1 mi
3:53 pm31 °FLight snow. Ice fog.13 mph89%30.09 "Hg1 mi
3:25 pm31 °FLight snow. Mostly cloudy.13 mph79%30.07 "Hg1 mi
2:55 pm32 °FLight snow. Mostly cloudy.9 mph69%30.09 "Hg2 mi
1:53 pm33 °FLight snow. Mostly cloudy.5 mph61%30.15 "Hg9 mi
12:53 pm33 °FLight snow. Mostly cloudy.6 mph58%30.19 "Hg10 mi
11:53 am33 °FCloudy.8 mph61%30.24 "Hg10 mi
10:53 am30 °FOvercast.16 mph69%30.28 "Hg10 mi
9:53 am28 °FMostly cloudy.15 mph72%30.32 "Hg10 mi
8:53 am27 °FMostly cloudy.14 mph75%30.35 "Hg10 mi
7:53 am25 °FCloudy.16 mph78%30.36 "Hg10 mi
6:53 am24 °FMostly cloudy.13 mph81%30.37 "Hg10 mi
5:53 am24 °FPartly cloudy.13 mph77%30.40 "Hg10 mi
4:53 am24 °FPassing clouds.10 mph77%30.40 "Hg10 mi
Weather by CustomWeather, © 2019

See weather overview